Location: Arleux
(50.3632°N, 2.8721°E)
Time: 00:49:37
(UTC+00:00)

N. Korean satellite - Pass Details

Date: 13 March 2021
Orbit: 453 x 499 km, 97.2° (Epoch: 11 April)

Event Time Altitude Azimuth Distance (km) Brightness Sun altitude
Rises 04:02:12 0° 32° (NNE) 2,560 11.1 -20.3°
Reaches altitude 10° 04:05:35 10° 67° (ENE) 1,684 10.5 -19.8°
Maximum altitude 04:06:52 12° 88° (E) 1,592 10.2 -19.6°
Drops below altitude 10° 04:08:09 10° 109° (ESE) 1,687 10.0 -19.4°
Sets 04:11:32 0° 144° (SE) 2,571 10.5 -18.9°
